FENGYUN 1C DEB, 29962

Orbit data source: Space-Track

FENGYUN 1C DEB, 29962 is space debris in SSO originally from a launch on Mon, 10 May 1999 UTC launched from the Taiyaun Space Center, China (TSC). Fengyun 1C debris stems from the Chinese weather satellite Fengyun-1C, which was intentionally destroyed by a Chinese anti-satellite missile in 2007. This event dramatically increased the amount of space debris, with thousands of trackable fragments posing hazards to satellites and human spaceflight. The Fengyun 1C debris cloud has become a focal point in discussions about space sustainability and the need for international regulations to prevent the creation of new debris.

Loading next visibility...
Identifier
29962, 1999-025KL
Orbit
SSO
Country
Flag of CNCN / PRC
Related business
Manufacturer
Unknown
Mission
Spacecraft
Bus & Motor
Unknown
Mass
Unknown
Launch date (UTC)
1999-05-10 (27 years ago)
Launch vehicle
Unknown
Launch site
Taiyaun Space Center, China (TSC)
Object type
Payload
Rocket body
Debris
Shape & HBR
Unknown shape, 0.2 m
Radar Cross Section
Small (<0.1 m²)

Expand to show TLE details & history
Last TLE update: 11 hours ago

TLE from 11 hours ago
0 FENGYUN 1C DEB
1 29962U 99025KL  26104.80589330 -.00000031  00000-0  69649-5 0  9996
2 29962  98.7675 114.3333 0109291 234.6092 304.0329 14.07247354987280
Epoch: 2026-04-14T19:20Z
TLE epoch observation values (Epoch: 2026-04-14T19:20:29.181Z)
Latitude
2.27361°
Longitude
161.58383°
Altitude
827.7 km
Speed
7.462 km/s
True Right ascension
19h 38m 43s
True Declination
2° 15' 37"
Sunlit
Object was in daylight at epoch
Visualization orbit readout
Latitude
Unknown
Longitude
Unknown
Altitude
Unknown
Speed
Unknown
Apparent Right ascension
Unknown
Apparent Declination
Unknown
Sunlit
N/A
Visualization observer readout
Local Sidereal Time
12:25:37
Azimuth
Unknown
Elevation
Unknown
Doppler factor
Unknown
Orbital elements
Apogee altitude
945.156 km
Perigee altitude
786.813 km
Semi-major axis
7,244.122 km
Eccentricity
0.01093
Inclination
98.7675°
RAAN
114.3333°
Arg. of periapsis
234.6092°
True anomaly
302.98709°
Mean anomaly
304.0329°
Eccentric anomaly
303.51079°
Mean motion
3.52018 °/min
Orbital period
102.27 mins
BSTAR
0.0000069649
Loading maneuver chart data...
Computing Atmospheric mass density...
Loading historical data...
Loading historical data...
Loading historical data...
Loading historical data...
Loading historical data...
Loading historical data...
Loading historical data...

Documentation

Showing up to 5 results
|